• In Romania
  • List of Countries
  • For 7 days
  • Water Temperature
  • Satellite Maps
  • Weather Map
  • Weather Widgets
  • user-avatar
    Login

    Hourly Weather Porto-Novo

    Today, 21 October, Saturday

    Time Temperature Precipitation Wind Pressure Humidity
    00:00 +28°C° 0 mm 3 mps 759 mmHg 86%
    01:00 +28°C° 0.1 mm 3 mps 758 mmHg 87%
    02:00 +27°C° 0.1 mm 3 mps 758 mmHg 88%
    03:00 +27°C° 0.1 mm 2 mps 758 mmHg 89%
    04:00 +27°C° 0.2 mm 2 mps 758 mmHg 90%
    05:00 +27°C° 0.2 mm 2 mps 758 mmHg 90%
    06:00 +27°C° 0.2 mm 2 mps 758 mmHg 91%
    07:00 +29°C° 0 mm 2 mps 758 mmHg 81%
    08:00 +31°C° 0 mm 2 mps 759 mmHg 72%
    09:00 +33°C° 0 mm 3 mps 759 mmHg 63%
    10:00 +35°C° 0 mm 3 mps 759 mmHg 58%
    11:00 +36°C° 0 mm 3 mps 758 mmHg 54%
    12:00 +37°C° 0 mm 3 mps 758 mmHg 50%
    13:00 +36°C° 0 mm 4 mps 757 mmHg 52%
    14:00 +35°C° 0 mm 4 mps 757 mmHg 55%
    15:00 +34°C° 0 mm 4 mps 756 mmHg 58%
    16:00 +33°C° 0 mm 4 mps 756 mmHg 64%
    17:00 +32°C° 0 mm 4 mps 757 mmHg 71%
    18:00 +29°C° 0 mm 4 mps 757 mmHg 77%
    19:00 +29°C° 0 mm 4 mps 758 mmHg 79%
    20:00 +29°C° 0 mm 4 mps 759 mmHg 81%
    21:00 +29°C° 0 mm 4 mps 759 mmHg 82%
    22:00 +29°C° 0 mm 4 mps 759 mmHg 83%
    23:00 +28°C° 0 mm 4 mps 759 mmHg 84%

    Tomorrow, 22 October, Sunday

    Time Temperature Precipitation Wind Pressure Humidity
    00:00 +28°C° 0 mm 4 mps 759 mmHg 84%
    01:00 +28°C° 0 mm 4 mps 759 mmHg 85%
    02:00 +28°C° 0 mm 4 mps 758 mmHg 85%
    03:00 +28°C° 0 mm 3 mps 758 mmHg 86%
    04:00 +28°C° 0 mm 3 mps 758 mmHg 86%
    05:00 +28°C° 0 mm 3 mps 758 mmHg 86%
    06:00 +28°C° 0 mm 3 mps 758 mmHg 87%
    07:00 +29°C° 0 mm 3 mps 759 mmHg 80%
    08:00 +30°C° 0 mm 3 mps 759 mmHg 74%
    09:00 +33°C° 0 mm 4 mps 759 mmHg 68%
    10:00 +33°C° 0 mm 4 mps 759 mmHg 68%
    11:00 +33°C° 0 mm 4 mps 758 mmHg 68%
    12:00 +33°C° 0 mm 4 mps 758 mmHg 67%
    13:00 +33°C° 0.1 mm 4 mps 757 mmHg 67%
    14:00 +33°C° 0.1 mm 4 mps 757 mmHg 67%
    15:00 +33°C° 0.1 mm 4 mps 756 mmHg 67%
    16:00 +32°C° 0 mm 4 mps 757 mmHg 71%
    17:00 +30°C° 0 mm 4 mps 757 mmHg 74%
    18:00 +29°C° 0 mm 4 mps 757 mmHg 78%
    19:00 +29°C° 0 mm 4 mps 758 mmHg 79%
    20:00 +28°C° 0 mm 3 mps 759 mmHg 81%
    21:00 +28°C° 0 mm 3 mps 759 mmHg 83%
    22:00 +28°C° 0 mm 3 mps 759 mmHg 84%
    23:00 +28°C° 0 mm 3 mps 759 mmHg 85%

    Day after tomorrow, 23 October, Monday

    Time Temperature Precipitation Wind Pressure Humidity
    00:00 +28°C° 0 mm 3 mps 759 mmHg 86%
    01:00 +27°C° 0 mm 3 mps 758 mmHg 87%
    02:00 +27°C° 0 mm 3 mps 758 mmHg 87%
    03:00 +27°C° 0 mm 3 mps 757 mmHg 88%
    04:00 +27°C° 0 mm 3 mps 757 mmHg 88%
    05:00 +27°C° 0 mm 3 mps 757 mmHg 89%
    06:00 +27°C° 0 mm 3 mps 758 mmHg 89%
    07:00 +29°C° 0 mm 3 mps 758 mmHg 81%
    08:00 +30°C° 0 mm 3 mps 758 mmHg 73%
    09:00 +33°C° 0 mm 3 mps 759 mmHg 65%
    10:00 +34°C° 0 mm 3 mps 758 mmHg 61%
    11:00 +35°C° 0 mm 4 mps 757 mmHg 57%
    12:00 +36°C° 0 mm 4 mps 757 mmHg 53%
    13:00 +36°C° 0 mm 4 mps 756 mmHg 55%
    14:00 +35°C° 0 mm 4 mps 756 mmHg 56%
    15:00 +35°C° 0 mm 4 mps 755 mmHg 58%
    16:00 +33°C° 0 mm 4 mps 755 mmHg 64%
    17:00 +32°C° 0 mm 4 mps 756 mmHg 69%
    18:00 +29°C° 0 mm 4 mps 756 mmHg 75%
    19:00 +29°C° 0 mm 4 mps 757 mmHg 77%
    20:00 +29°C° 0 mm 3 mps 757 mmHg 80%
    21:00 +28°C° 0 mm 3 mps 758 mmHg 82%
    22:00 +28°C° 0 mm 4 mps 758 mmHg 84%
    23:00 +28°C° 0 mm 4 mps 758 mmHg 85%

    24 October, Tuesday

    Time Temperature Precipitation Wind Pressure Humidity
    00:00 +28°C° 0 mm 4 mps 758 mmHg 87%
    01:00 +28°C° 0.1 mm 4 mps 757 mmHg 87%
    02:00 +28°C° 0.1 mm 4 mps 757 mmHg 88%
    03:00 +28°C° 0.1 mm 4 mps 756 mmHg 88%
    04:00 +27°C° 0 mm 3 mps 757 mmHg 88%
    05:00 +27°C° 0 mm 3 mps 757 mmHg 89%
    06:00 +27°C° 0 mm 3 mps 757 mmHg 89%
    07:00 +29°C° 0 mm 3 mps 757 mmHg 80%
    08:00 +31°C° 0 mm 3 mps 758 mmHg 72%
    09:00 +33°C° 0 mm 3 mps 758 mmHg 63%
    10:00 +34°C° 0 mm 3 mps 757 mmHg 59%
    11:00 +36°C° 0 mm 3 mps 757 mmHg 55%
    12:00 +37°C° 0 mm 3 mps 756 mmHg 51%
    13:00 +36°C° 0 mm 4 mps 755 mmHg 52%
    14:00 +36°C° 0 mm 4 mps 755 mmHg 54%
    15:00 +35°C° 0 mm 4 mps 755 mmHg 56%
    16:00 +34°C° 0.1 mm 4 mps 755 mmHg 63%
    17:00 +32°C° 0.1 mm 4 mps 756 mmHg 70%
    18:00 +29°C° 0.1 mm 3 mps 756 mmHg 77%
    19:00 +29°C° 0 mm 3 mps 757 mmHg 80%
    20:00 +29°C° 0 mm 3 mps 757 mmHg 82%
    21:00 +28°C° 0 mm 3 mps 758 mmHg 85%
    22:00 +28°C° 0 mm 3 mps 758 mmHg 86%
    23:00 +28°C° 0 mm 3 mps 757 mmHg 86%

    25 October, Wednesday

    Time Temperature Precipitation Wind Pressure Humidity
    00:00 +28°C° 0 mm 3 mps 757 mmHg 87%
    01:00 +28°C° 0 mm 3 mps 757 mmHg 87%
    02:00 +28°C° 0 mm 3 mps 757 mmHg 88%
    03:00 +28°C° 0 mm 3 mps 756 mmHg 88%
    04:00 +27°C° 0 mm 3 mps 757 mmHg 89%
    05:00 +27°C° 0 mm 3 mps 757 mmHg 89%
    06:00 +27°C° 0 mm 3 mps 757 mmHg 89%
    07:00 +29°C° 0 mm 3 mps 757 mmHg 81%
    08:00 +31°C° 0 mm 3 mps 758 mmHg 73%
    09:00 +34°C° 0 mm 3 mps 758 mmHg 64%
    10:00 +35°C° 0 mm 3 mps 757 mmHg 60%
    11:00 +36°C° 0 mm 4 mps 757 mmHg 56%
    12:00 +37°C° 0 mm 4 mps 756 mmHg 51%
    13:00 +36°C° 0 mm 4 mps 756 mmHg 53%
    14:00 +36°C° 0 mm 4 mps 755 mmHg 54%
    15:00 +35°C° 0 mm 4 mps 755 mmHg 56%
    16:00 +34°C° 0 mm 4 mps 755 mmHg 63%
    17:00 +32°C° 0 mm 4 mps 756 mmHg 70%
    18:00 +30°C° 0 mm 4 mps 756 mmHg 77%
    19:00 +29°C° 0 mm 4 mps 757 mmHg 79%
    20:00 +29°C° 0 mm 4 mps 757 mmHg 82%
    21:00 +28°C° 0 mm 3 mps 758 mmHg 85%
    22:00 +28°C° 0 mm 3 mps 758 mmHg 86%
    23:00 +28°C° 0 mm 3 mps 758 mmHg 87%

    26 October, Thursday

    Time Temperature Precipitation Wind Pressure Humidity
    00:00 +28°C° 0 mm 3 mps 758 mmHg 88%
    01:00 +28°C° 0 mm 3 mps 757 mmHg 88%
    02:00 +28°C° 0 mm 3 mps 757 mmHg 88%
    03:00 +28°C° 0 mm 3 mps 757 mmHg 88%
    04:00 +27°C° 0 mm 3 mps 757 mmHg 88%
    05:00 +27°C° 0 mm 3 mps 758 mmHg 89%
    06:00 +27°C° 0 mm 3 mps 758 mmHg 89%
    07:00 +29°C° 0 mm 3 mps 758 mmHg 80%
    08:00 +31°C° 0 mm 3 mps 758 mmHg 72%
    09:00 +34°C° 0 mm 3 mps 759 mmHg 63%
    10:00 +34°C° 0 mm 3 mps 758 mmHg 60%
    11:00 +35°C° 0 mm 3 mps 757 mmHg 58%
    12:00 +35°C° 0 mm 3 mps 757 mmHg 55%
    13:00 +35°C° 0 mm 3 mps 756 mmHg 55%
    14:00 +35°C° 0 mm 3 mps 756 mmHg 55%
    15:00 +35°C° 0 mm 3 mps 755 mmHg 55%
    16:00 +34°C° 0 mm 3 mps 756 mmHg 61%
    17:00 +31°C° 0 mm 3 mps 756 mmHg 67%
    18:00 +30°C° 0 mm 3 mps 756 mmHg 73%
    19:00 +29°C° 0 mm 3 mps 757 mmHg 76%
    20:00 +29°C° 0 mm 3 mps 757 mmHg 79%
    21:00 +28°C° 0 mm 3 mps 757 mmHg 82%
    22:00 +28°C° 0 mm 3 mps 757 mmHg 83%
    23:00 +28°C° 0 mm 3 mps 757 mmHg 85%
    Show more